sat.trackr.live / text

‹ back to catalog

STARLINK-34036

NORAD 63945 · 2025-098V

PAYLOAD ACTIVE UNKNOWN

§ Identity

Operator
Country
US
Launch date
2025-05-13
Launch site
AFWTR
Launch vehicle
Mass (kg)
RCS (m²)

Purposes: comms

External: N2YO · Heavens-Above · Gunter

§ Orbital elements

Epoch: 2026-09-20T22:36:28.388736Z

Period
94.14 min
Inclination
69.9998°
Eccentricity
0.0003122
Mean motion
15.29591942 rev/d
Perigee alt
474.9 km
Apogee alt
479.2 km
Semi-major
6,855.2 km
B*
1.6882e-4
RAAN
139.5971°
Arg perigee
273.1623°
Mean anomaly
86.9194°
Rev number
7,586

§ Raw data

STARLINK-340361 63945U 25098V   26263.94199524  .00004730  00000+0  16882-3 0  99942 63945  69.9998 139.5971 0003122 273.1623  86.9194 15.29591942 75866

JSON: /api/v1/satellites/63945 · /tle

For live sub-satellite position, see the globe view (requires WebGL).

§ Visibility from observer

Set your observer location to see the next 7 days of passes ≥ 10°. The values pass through the URL so the page stays shareable.

No JS? Fill the form by hand. The geolocation button needs JavaScript.